Tiempo cada hora Dabaizhuang

Hoy, 13 Mayo, Jueves

Tiempo Temperatura Precipitaciones Viento Presión Humedad
00:00 +17°C° 0 mm 3 mps 756 mmHg 59%
01:00 +16°C° 0 mm 3 mps 756 mmHg 67%
02:00 +16°C° 0 mm 3 mps 756 mmHg 75%
03:00 +14°C° 0 mm 3 mps 756 mmHg 79%
04:00 +14°C° 0 mm 3 mps 756 mmHg 83%
05:00 +14°C° 0 mm 3 mps 757 mmHg 87%
06:00 +17°C° 0 mm 3 mps 757 mmHg 81%
07:00 +19°C° 0 mm 3 mps 757 mmHg 74%
08:00 +21°C° 0 mm 4 mps 757 mmHg 68%
09:00 +23°C° 0 mm 4 mps 757 mmHg 60%
10:00 +26°C° 0 mm 4 mps 757 mmHg 53%
11:00 +28°C° 0 mm 4 mps 757 mmHg 46%
12:00 +28°C° 0 mm 5 mps 756 mmHg 44%
13:00 +29°C° 0 mm 5 mps 756 mmHg 43%
14:00 +29°C° 0 mm 6 mps 755 mmHg 42%
15:00 +28°C° 0 mm 6 mps 755 mmHg 44%
16:00 +27°C° 0 mm 6 mps 754 mmHg 47%
17:00 +26°C° 0 mm 6 mps 754 mmHg 49%
18:00 +23°C° 0 mm 6 mps 754 mmHg 57%
19:00 +21°C° 0 mm 6 mps 755 mmHg 65%
20:00 +19°C° 0 mm 6 mps 755 mmHg 73%
21:00 +19°C° 0 mm 5 mps 755 mmHg 75%
22:00 +17°C° 0 mm 5 mps 755 mmHg 76%
23:00 +17°C° 0 mm 5 mps 756 mmHg 78%

Mañana, 14 Mayo, Viernes

Tiempo Temperatura Precipitaciones Viento Presión Humedad
00:00 +17°C° 0 mm 4 mps 756 mmHg 80%
01:00 +17°C° 0 mm 4 mps 755 mmHg 82%
02:00 +16°C° 0 mm 3 mps 755 mmHg 84%
03:00 +16°C° 0 mm 3 mps 755 mmHg 85%
04:00 +16°C° 0 mm 3 mps 755 mmHg 86%
05:00 +16°C° 0 mm 3 mps 755 mmHg 87%
06:00 +18°C° 0 mm 3 mps 755 mmHg 78%
07:00 +20°C° 0 mm 3 mps 755 mmHg 69%
08:00 +24°C° 0 mm 2 mps 755 mmHg 60%
09:00 +26°C° 0 mm 3 mps 755 mmHg 55%
10:00 +28°C° 0 mm 3 mps 754 mmHg 50%
11:00 +30°C° 0 mm 4 mps 754 mmHg 45%
12:00 +30°C° 0 mm 5 mps 753 mmHg 42%
13:00 +32°C° 0 mm 6 mps 753 mmHg 39%
14:00 +32°C° 0 mm 6 mps 752 mmHg 36%
15:00 +32°C° 0 mm 6 mps 752 mmHg 38%
16:00 +30°C° 0 mm 6 mps 752 mmHg 40%
17:00 +29°C° 0 mm 6 mps 751 mmHg 42%
18:00 +28°C° 0 mm 6 mps 752 mmHg 47%
19:00 +26°C° 0 mm 6 mps 752 mmHg 53%
20:00 +25°C° 0 mm 5 mps 752 mmHg 58%
21:00 +25°C° 0 mm 5 mps 752 mmHg 62%
22:00 +23°C° 0 mm 4 mps 753 mmHg 65%
23:00 +23°C° 0 mm 4 mps 753 mmHg 69%

Pasado mañana, 15 Mayo, Sábado

Tiempo Temperatura Precipitaciones Viento Presión Humedad
00:00 +22°C° 0 mm 4 mps 753 mmHg 72%
01:00 +22°C° 0 mm 3 mps 753 mmHg 76%
02:00 +21°C° 0 mm 3 mps 752 mmHg 79%
03:00 +21°C° 0 mm 3 mps 753 mmHg 80%
04:00 +20°C° 0 mm 3 mps 753 mmHg 81%
05:00 +20°C° 0 mm 3 mps 753 mmHg 82%
06:00 +20°C° 0 mm 4 mps 753 mmHg 81%
07:00 +21°C° 0 mm 4 mps 754 mmHg 79%
08:00 +21°C° 0 mm 4 mps 754 mmHg 77%
09:00 +20°C° 0.3 mm 5 mps 755 mmHg 76%
10:00 +20°C° 0.3 mm 6 mps 755 mmHg 75%
11:00 +18°C° 0.3 mm 7 mps 756 mmHg 73%
12:00 +18°C° 0.1 mm 7 mps 756 mmHg 66%
13:00 +17°C° 0.1 mm 7 mps 756 mmHg 59%
14:00 +17°C° 0.1 mm 7 mps 756 mmHg 52%
15:00 +16°C° 0.1 mm 7 mps 757 mmHg 55%
16:00 +16°C° 0.1 mm 6 mps 757 mmHg 59%
17:00 +15°C° 0.1 mm 5 mps 757 mmHg 62%
18:00 +15°C° 0 mm 5 mps 758 mmHg 62%
19:00 +15°C° 0 mm 5 mps 758 mmHg 62%
20:00 +14°C° 0 mm 4 mps 758 mmHg 63%
21:00 +14°C° 0 mm 3 mps 758 mmHg 62%
22:00 +14°C° 0 mm 3 mps 759 mmHg 62%
23:00 +15°C° 0 mm 2 mps 759 mmHg 62%

16 Mayo, Domingo

Tiempo Temperatura Precipitaciones Viento Presión Humedad
00:00 +15°C° 0 mm 2 mps 758 mmHg 67%
01:00 +15°C° 0 mm 2 mps 758 mmHg 72%
02:00 +15°C° 0 mm 2 mps 758 mmHg 77%
03:00 +14°C° 0 mm 3 mps 758 mmHg 73%
04:00 +14°C° 0 mm 3 mps 758 mmHg 70%
05:00 +16°C° 0 mm 3 mps 758 mmHg 67%
06:00 +16°C° 0 mm 3 mps 758 mmHg 61%
07:00 +17°C° 0 mm 2 mps 758 mmHg 55%
08:00 +17°C° 0 mm 2 mps 758 mmHg 49%
09:00 +20°C° 0 mm 3 mps 758 mmHg 38%
10:00 +24°C° 0 mm 3 mps 757 mmHg 28%
11:00 +27°C° 0 mm 3 mps 757 mmHg 17%
12:00 +29°C° 0 mm 3 mps 757 mmHg 15%
13:00 +30°C° 0 mm 4 mps 756 mmHg 12%
14:00 +33°C° 0 mm 4 mps 755 mmHg 10%
15:00 +33°C° 0 mm 4 mps 755 mmHg 10%
16:00 +33°C° 0 mm 3 mps 755 mmHg 10%
17:00 +33°C° 0 mm 3 mps 754 mmHg 10%
18:00 +30°C° 0 mm 3 mps 755 mmHg 13%
19:00 +27°C° 0 mm 3 mps 755 mmHg 16%
20:00 +25°C° 0 mm 2 mps 755 mmHg 19%
21:00 +24°C° 0 mm 2 mps 756 mmHg 21%
22:00 +23°C° 0 mm 2 mps 756 mmHg 23%
23:00 +21°C° 0 mm 2 mps 756 mmHg 24%

17 Mayo, Lunes

Tiempo Temperatura Precipitaciones Viento Presión Humedad
00:00 +21°C° 0 mm 2 mps 756 mmHg 24%
01:00 +21°C° 0 mm 2 mps 756 mmHg 24%
02:00 +22°C° 0 mm 1 mps 755 mmHg 23%
03:00 +20°C° 0 mm 2 mps 756 mmHg 25%
04:00 +19°C° 0 mm 2 mps 756 mmHg 27%
05:00 +18°C° 0 mm 2 mps 756 mmHg 29%
06:00 +20°C° 0 mm 2 mps 756 mmHg 26%
07:00 +22°C° 0 mm 3 mps 757 mmHg 24%
08:00 +25°C° 0 mm 3 mps 757 mmHg 22%
09:00 +27°C° 0 mm 4 mps 757 mmHg 19%
10:00 +29°C° 0 mm 4 mps 757 mmHg 17%
11:00 +30°C° 0 mm 4 mps 757 mmHg 14%
12:00 +32°C° 0 mm 4 mps 757 mmHg 14%
13:00 +32°C° 0 mm 5 mps 756 mmHg 14%
14:00 +32°C° 0 mm 5 mps 756 mmHg 14%
15:00 +30°C° 0 mm 5 mps 756 mmHg 14%
16:00 +29°C° 0 mm 5 mps 755 mmHg 15%
17:00 +28°C° 0 mm 5 mps 755 mmHg 16%
18:00 +26°C° 0 mm 5 mps 755 mmHg 20%
19:00 +23°C° 0 mm 4 mps 755 mmHg 24%
20:00 +21°C° 0 mm 3 mps 755 mmHg 27%
21:00 +21°C° 0 mm 2 mps 756 mmHg 30%
22:00 +20°C° 0 mm 2 mps 756 mmHg 32%
23:00 +20°C° 0 mm 1 mps 756 mmHg 34%

18 Mayo, Martes

Tiempo Temperatura Precipitaciones Viento Presión Humedad
00:00 +20°C° 0 mm 1 mps 756 mmHg 36%
01:00 +19°C° 0 mm 1 mps 756 mmHg 37%
02:00 +19°C° 0 mm 1 mps 756 mmHg 38%
03:00 +18°C° 0 mm 1 mps 756 mmHg 40%
04:00 +17°C° 0 mm 2 mps 756 mmHg 42%
05:00 +17°C° 0 mm 2 mps 756 mmHg 44%
06:00 +19°C° 0 mm 2 mps 756 mmHg 40%
07:00 +21°C° 0 mm 2 mps 756 mmHg 36%
08:00 +25°C° 0 mm 2 mps 756 mmHg 32%
09:00 +27°C° 0 mm 3 mps 756 mmHg 28%
10:00 +30°C° 0 mm 4 mps 755 mmHg 24%
11:00 +34°C° 0 mm 5 mps 755 mmHg 19%
12:00 +35°C° 0 mm 5 mps 755 mmHg 17%
13:00 +36°C° 0 mm 6 mps 754 mmHg 15%
14:00 +38°C° 0 mm 6 mps 754 mmHg 13%
15:00 +37°C° 0 mm 5 mps 753 mmHg 13%
16:00 +37°C° 0 mm 5 mps 753 mmHg 12%
17:00 +37°C° 0 mm 4 mps 753 mmHg 11%
18:00 +34°C° 0 mm 4 mps 753 mmHg 14%
19:00 +32°C° 0 mm 4 mps 753 mmHg 18%
20:00 +28°C° 0 mm 4 mps 753 mmHg 21%
21:00 +28°C° 0 mm 5 mps 753 mmHg 22%
22:00 +28°C° 0 mm 6 mps 754 mmHg 22%
23:00 +27°C° 0 mm 6 mps 754 mmHg 22%
Mostrar más

Necesitamos Su Consentimiento

Meteoprog y nuestros Proveedores de Servicios pueden almacenar y acceder a sus datos personales como cookies, identificadores de dispositivo u otras tecnologías similares de su dispositivo y procesar dichos datos para personalizar contenido y anuncios, además de ofrecer funciones de redes sociales y analizar el tráfico.

  • Almacenar y/o acceder a información en su dispositivo

    Se puede almacenar o acceder a cookies, identificadores de dispositivo u otra información de su dispositivo para los fines anteriormente indicados.

  • Anuncios y contenido personalizados, medición de anuncios y contenido, percepciones del público, y desarrollo de productos

    Los anuncios y el contenido pueden personalizarse en base a su perfil. Se pueden añadir más datos para personalizar mejor los anuncios y contenidos. Se puede medir el rendimiento de los anuncios y contenidos. Se puede obtener la percepción sobre el público que ha visto los anuncios y contenidos. Dichos datos pueden usarse para desarrollar o mejorar la experiencia del usuario, sistemas y software.

Al hacer clic en ‘Estoy De Acuerdo’ usted permitirá el uso de las cookies, identificadores de dispositivo, balizas web u otras tecnologías similares indicadas. Su configuración puede cambiarse desde el navegador de su dispositivo.

Para ciertos fines, los intereses legítimos pueden ser considerados por encima del consentimiento. Puede leer más sobre ello en nuestra Política de Privacidad y Cookies.